Wind_Speed
17 18 18 18 19 19 19 20 20 19 19 19 19 19 20 20 20 21 21 22 23 23 24 24 24 25 25 25 25 26 27 27 26 26 27 27 27 28 28 28 29 29 29 29 29 29 30 30 30 29 28 29 30 29 30 30 29 30 29 28 29 27 25 25 27 39 46 35 28 30 27 23 28 31 29 33 37 37 40 43 44 44 45 43 43
17 18 18 18 19 19 19 19 19 19 19 19 19 19 20 20 20 21 21 22 23 24 25 25 25 26 27 27 27 27 28 28 28 27 27 28 28 28 29 29 29 29 29 30 30 29 30 30 31 30 29 29 30 29 29 29 29 30 29 27 28 28 25 26 28 35 44 44 34 33 33 26 26 29 24 23 31 33 35 41 44 44 46 46 46
17 18 18 18 19 19 19 19 19 19 19 19 19 20 20 21 21 22 22 23 24 24 25 26 26 27 28 28 28 29 29 29 29 29 28 29 29 29 29 29 30 30 30 30 30 29 29 30 30 29 28 28 29 28 27 28 28 29 30 28 27 28 27 25 27 30 36 43 39 33 31 26 23 27 26 24 28 32 33 37 40 42 43 44 46
16 17 18 18 19 19 19 19 19 19 20 20 21 21 21 22 22 22 23 23 24 25 26 26 27 28 28 29 29 30 30 30 30 29 29 29 29 30 30 29 29 29 29 29 29 29 28 28 28 27 27 27 27 27 27 27 28 28 28 27 24 24 25 24 26 29 32 40 41 35 33 32 29 28 28 26 25 27 28 29 32 36 38 40 42
15 16 17 17 18 18 19 19 19 19 20 20 21 21 21 22 22 23 24 24 25 25 26 27 28 28 28 29 30 30 30 30 30 29 28 28 28 28 28 28 28 28 28 28 27 25 24 25 26 24 23 23 24 24 25 26 26 26 25 24 23 23 26 27 28 30 31 36 41 40 35 34 33 31 28 25 23 22 22 21 23 26 29 33 36
15 15 16 16 17 17 18 18 19 19 19 20 21 21 22 23 23 24 25 25 26 26 27 27 28 28 28 29 29 30 30 29 29 28 27 27 26 26 26 26 26 26 26 25 22 19 19 20 21 20 19 21 21 21 22 22 23 23 24 25 25 26 28 30 30 31 34 36 40 41 37 30 28 28 26 23 22 23 23 22 22 22 23 25 27
15 16 17 17 18 18 18 19 19 20 20 21 22 22 23 24 24 25 25 26 26 26 27 27 27 28 28 28 29 29 29 29 28 27 26 25 25 25 25 25 25 24 22 20 18 17 18 20 20 21 21 22 22 22 22 23 23 23 24 25 25 26 28 30 30 31 34 36 38 39 35 26 23 26 27 25 25 25 25 24 23 21 20 19 19
16 16 17 18 18 19 19 20 20 21 21 22 22 23 23 23 24 24 25 25 25 25 26 26 26 26 27 27 28 28 28 27 26 25 25 24 23 23 24 24 23 22 19 18 16 17 20 23 23 23 23 22 23 23 23 24 24 25 25 24 25 27 29 31 31 31 31 32 34 35 32 26 25 27 28 26 25 24 22 21 23 23 20 19 19
16 17 17 18 18 19 19 20 21 21 22 22 22 23 23 23 24 24 24 24 24 25 25 25 25 25 25 26 26 26 26 25 24 24 22 21 21 23 23 22 22 22 22 22 23 25 28 29 29 29 28 28 28 28 27 28 29 30 30 30 30 31 32 32 32 31 30 30 33 33 30 28 27 26 25 25 25 24 21 21 24 24 21 20 21
17 17 18 18 18 19 20 21 21 21 22 22 23 23 23 23 23 23 23 23 23 23 24 24 24 25 25 26 25 25 25 23 22 20 16 17 21 22 22 23 25 27 28 30 32 34 35 36 37 36 34 33 33 32 33 33 33 35 35 35 35 35 35 34 32 30 29 30 32 31 29 29 27 24 25 27 26 25 23 23 23 23 23 23 23
17 18 18 19 20 20 20 21 21 22 22 22 22 22 22 22 22 22 22 22 22 22 23 23 24 24 25 25 25 25 24 22 20 16 12 15 19 21 23 27 29 30 32 34 35 35 36 36 37 38 36 34 34 33 33 34 33 34 34 34 34 33 33 34 33 30 29 29 30 28 26 28 27 24 26 27 26 24 23 22 22 22 21 22 22
18 18 19 19 20 20 20 21 21 21 21 21 21 21 21 22 22 22 21 21 21 21 22 23 23 24 24 24 24 24 22 21 18 13 11 13 16 20 27 31 31 32 33 34 34 33 33 34 34 34 34 33 33 33 33 33 32 31 31 30 30 30 30 31 31 31 29 29 29 28 26 26 26 26 28 28 28 27 25 24 23 22 23 23 24
17 19 19 20 20 21 21 21 21 21 21 21 21 21 21 21 22 22 21 21 22 22 22 23 23 23 24 24 24 23 21 20 17 13 11 12 14 21 30 32 30 31 31 30 31 30 30 31 32 31 31 31 30 30 30 31 30 29 29 28 28 28 28 28 28 29 30 31 32 32 31 30 30 32 32 30 30 29 27 26 24 23 24 24 24
18 19 20 20 21 21 21 21 21 21 21 21 21 21 21 21 21 21 22 22 22 23 23 23 23 23 23 24 24 23 21 19 17 13 10 11 16 22 29 29 28 29 29 29 30 30 29 30 31 30 28 25 23 24 26 26 26 26 26 26 26 25 25 25 25 26 28 29 31 33 33 31 31 32 31 29 30 30 28 27 25 23 24 25 26
18 19 19 20 20 20 20 20 20 21 21 20 21 20 20 20 21 21 21 22 22 23 23 23 23 23 23 23 24 23 21 19 17 12 8 10 18 24 27 28 28 28 29 29 29 29 29 29 29 26 23 22 22 24 25 24 23 24 26 26 26 26 26 25 24 24 25 26 27 29 29 27 24 22 22 23 24 26 28 29 29 29 30 31 30
18 18 18 19 19 19 19 20 20 20 20 19 19 20 20 20 20 21 21 21 21 22 22 22 22 23 22 22 23 23 21 19 16 11 7 11 20 26 27 27 28 29 29 29 29 28 27 25 23 22 24 26 28 27 25 22 23 26 28 28 28 29 29 28 26 26 26 26 25 23 20 17 15 12 10 11 12 14 18 21 21 21 22 22 23
17 17 18 18 18 18 18 19 19 19 19 19 19 19 19 19 20 20 21 21 21 21 22 22 22 22 22 21 22 22 20 19 17 11 7 11 20 25 27 27 28 29 29 29 28 25 22 20 21 25 28 30 30 29 25 22 24 27 28 28 29 30 30 28 26 25 25 26 25 22 19 17 18 18 16 15 14 12 12 12 12 13 15 16 16
17 16 17 17 17 17 18 18 18 18 18 18 18 18 19 19 19 20 20 21 21 21 22 22 21 21 22 21 21 21 20 19 17 12 7 9 18 24 26 26 27 28 28 27 25 22 21 22 24 25 27 28 30 29 24 23 25 28 30 31 31 30 28 26 25 23 22 23 24 26 26 26 27 29 30 28 25 21 19 16 15 17 19 19 17
16 16 16 16 17 17 17 17 17 17 17 17 18 18 19 19 19 20 20 20 21 21 21 21 21 20 20 20 19 20 20 18 17 13 7 7 16 23 24 25 26 26 26 25 23 21 24 26 26 26 26 29 31 27 21 21 24 28 30 30 30 29 28 26 24 23 21 21 22 25 27 28 29 30 29 27 25 25 23 22 21 22 24 24 24
15 15 15 15 16 16 16 16 16 17 17 17 18 19 19 19 20 20 20 20 20 21 21 21 20 19 19 19 17 18 18 18 17 14 7 5 13 21 23 23 25 25 24 24 23 24 26 28 28 28 27 28 29 25 19 18 23 27 27 24 24 24 23 23 22 20 19 19 20 22 24 25 26 26 26 26 25 24 24 24 25 26 27 29 30
14 14 14 15 15 16 16 17 17 17 18 18 18 19 19 19 20 20 20 20 20 20 20 20 20 19 18 17 16 16 17 18 18 16 10 6 10 17 21 22 22 23 24 24 24 25 26 27 27 27 26 26 26 23 20 21 25 26 22 18 18 17 15 16 17 16 16 17 18 19 21 22 24 25 27 28 28 28 27 27 28 28 29 31 32
13 13 14 14 15 15 16 16 16 17 17 17 17 17 17 18 19 19 19 19 19 19 20 19 19 18 17 17 17 16 16 17 18 18 15 10 8 12 19 21 20 21 23 24 24 24 25 26 26 25 25 26 25 23 23 24 25 22 18 17 20 19 16 16 17 17 18 20 20 21 23 24 26 27 29 30 31 32 32 32 33 32 32 33 33
13 13 13 14 14 14 15 16 16 16 16 16 16 16 16 16 17 18 18 18 19 19 20 19 19 18 18 18 19 18 18 18 18 19 18 15 11 10 15 18 18 18 21 22 23 24 25 25 25 25 25 24 23 22 22 22 20 19 18 19 22 24 23 23 23 23 23 24 25 26 27 28 29 30 31 32 33 34 34 35 36 36 37 37 37
12 12 13 13 13 13 13 14 15 15 15 15 14 15 15 15 16 17 18 18 19 20 20 20 20 20 20 19 20 20 19 19 19 19 19 18 15 12 12 14 15 17 19 21 22 23 24 24 24 24 24 22 20 19 18 16 15 17 19 20 22 23 24 24 24 25 25 25 26 27 28 29 30 31 32 33 34 35 36 36 38 38 38 38 38
11 11 12 11 11 12 12 12 13 13 14 14 14 14 14 15 16 17 17 18 19 20 20 20 20 21 22 21 21 21 21 20 20 20 19 19 17 16 16 17 18 19 20 21 22 23 24 25 24 24 23 21 19 18 15 14 14 16 17 19 20 20 21 22 22 24 24 25 26 27 28 29 30 31 32 33 35 37 37 38 39 39 38 38 38
10 10 10 10 10 10 10 11 11 12 12 13 14 14 15 15 16 17 18 18 19 20 20 21 21 22 23 23 22 22 22 22 22 22 22 22 21 21 22 21 21 20 21 22 23 24 25 25 24 24 23 21 19 18 17 15 15 16 16 17 18 19 20 21 22 23 25 26 27 29 30 31 32 33 34 34 36 36 37 38 39 39 38 38 38
9 9 9 9 9 9 9 9 10 10 11 11 12 13 14 15 16 17 18 18 19 19 20 21 22 22 23 23 24 24 23 23 24 24 24 24 24 24 24 24 23 23 23 24 25 26 25 24 24 23 22 21 18 17 18 18 17 17 17 18 19 20 20 21 23 25 27 28 30 31 32 33 35 35 35 36 37 37 36 37 38 38 37 36 36
8 8 8 8 8 8 8 8 9 9 10 10 11 12 13 14 14 16 17 18 19 20 20 21 22 22 23 24 24 24 24 24 24 25 25 25 25 25 25 24 24 24 24 25 26 26 25 25 24 23 22 21 19 18 18 20 20 20 20 20 21 23 23 24 26 28 29 31 33 34 35 36 36 37 37 37 37 36 35 34 34 34 33 32 32
7 7 7 7 7 7 7 8 9 9 9 10 10 11 12 13 13 13 15 17 18 19 20 20 21 21 22 22 23 24 25 24 23 23 24 23 24 24 24 24 24 24 24 25 25 26 25 25 24 24 23 22 22 20 20 20 21 22 23 23 25 26 27 28 29 30 31 33 33 34 35 35 35 35 35 35 34 33 32 31 30 29 28 28 28
6 6 6 6 6 6 7 7 8 9 10 10 10 9 9 11 13 13 13 14 16 17 18 19 19 20 21 21 21 22 23 24 23 23 23 23 23 23 23 23 23 23 23 24 24 25 25 25 24 24 24 23 23 23 22 22 22 23 23 23 24 26 26 27 28 29 30 31 31 32 32 32 32 31 30 31 30 29 28 27 26 25 25 25 26
5 5 5 6 6 6 7 7 8 9 10 11 11 10 8 7 9 11 12 13 14 14 15 16 17 19 20 22 21 20 21 22 23 23 23 23 23 24 23 23 23 23 23 24 24 24 25 25 25 24 24 23 23 22 22 23 23 23 23 23 23 23 24 24 25 26 26 26 27 27 27 26 27 26 26 26 27 26 25 24 23 23 23 23 24
4 5 5 5 6 7 7 8 8 9 10 11 12 12 10 8 6 7 9 11 12 14 14 16 17 17 19 21 22 22 22 22 22 22 23 23 23 23 23 23 22 22 22 23 24 24 24 25 25 24 23 23 23 23 23 23 23 23 23 23 23 22 22 22 22 23 23 24 24 24 24 24 24 24 24 24 24 24 23 22 21 21 22 22 23
4 5 5 6 6 7 7 8 9 10 10 11 11 13 13 12 10 8 8 8 8 10 12 14 16 17 18 19 20 21 21 21 21 21 21 22 22 22 22 21 21 21 21 21 22 23 23 23 23 23 23 23 23 23 23 23 23 23 24 24 23 23 22 21 21 21 21 22 22 22 22 23 23 23 23 23 23 23 23 22 21 21 21 22 23
4 5 5 6 6 7 8 8 9 10 11 11 12 12 14 15 15 14 13 11 10 9 10 12 14 17 18 18 19 19 18 19 19 20 20 21 21 21 21 20 19 19 20 20 21 21 22 22 22 21 22 22 22 22 23 23 23 24 24 24 24 24 23 22 22 22 22 22 22 22 22 22 22 23 23 23 23 23 22 22 21 21 21 22 22
5 5 6 6 7 8 8 9 10 10 11 12 12 13 14 15 16 17 18 18 17 15 14 13 14 16 18 18 18 17 17 17 18 18 19 20 21 21 21 20 19 19 19 20 21 21 21 22 21 21 22 22 21 22 23 23 23 23 24 24 25 24 24 24 23 23 23 23 23 22 22 22 22 22 23 23 23 23 22 21 21 21 22 22 23
5 5 6 7 7 8 9 10 10 11 12 12 13 14 15 16 17 17 18 19 19 19 18 17 16 15 16 16 16 15 15 17 17 17 18 19 20 21 21 21 21 21 20 20 21 21 21 21 21 22 22 22 22 22 23 23 23 23 23 24 24 24 24 23 23 23 23 23 23 23 22 23 23 23 23 24 24 24 23 22 22 22 22 22 23
4 5 6 6 7 8 9 10 10 11 12 13 14 15 15 16 17 18 18 18 19 20 20 20 19 18 17 16 16 15 15 15 16 16 16 18 19 20 21 21 22 22 21 21 22 21 21 21 21 22 22 22 22 22 23 23 23 23 23 23 23 23 23 22 22 22 23 23 23 23 23 23 23 23 24 25 25 25 24 24 24 24 24 23 24
4 5 5 6 7 8 8 9 10 11 12 14 15 16 16 17 17 18 18 19 19 20 20 20 20 21 20 19 19 18 16 16 16 16 17 18 19 20 21 21 21 22 22 22 22 22 21 21 21 21 22 22 22 23 23 23 23 23 23 23 23 23 22 22 21 21 22 22 22 22 23 23 23 23 24 25 25 25 25 24 24 25 25 24 24
5 6 7 7 8 9 10 10 11 12 13 14 15 16 17 18 18 19 19 19 19 20 20 20 19 20 21 21 21 20 19 19 19 19 19 19 19 20 21 21 21 21 22 22 22 22 22 22 22 22 22 22 23 23 23 24 24 24 24 24 24 23 23 23 22 22 22 22 22 22 22 23 23 23 23 24 24 24 24 24 24 24 25 25 25
6 8 9 9 10 11 11 12 13 13 14 15 16 17 18 19 19 20 20 21 20 20 20 20 19 19 20 21 22 22 22 21 21 21 21 21 20 20 20 21 21 21 22 22 22 22 22 22 22 23 23 23 23 24 24 24 24 25 25 25 25 24 24 23 23 23 23 23 22 22 22 22 22 22 23 23 23 23 24 24 24 23 24 24 24
7 8 9 10 11 12 12 13 14 15 15 16 17 18 18 19 20 20 21 21 21 21 20 20 19 18 18 19 20 21 21 21 21 21 21 21 21 20 20 20 21 21 22 22 23 23 23 23 23 23 23 24 24 25 25 25 25 25 26 26 26 26 25 25 25 24 24 24 23 23 22 21 21 22 22 22 22 22 23 23 23 23 23 23 24
8 9 10 11 12 13 13 14 15 15 16 17 17 18 19 20 20 21 21 21 22 22 21 20 19 18 17 17 18 19 20 20 20 20 20 20 20 20 20 20 20 21 21 22 23 24 24 23 23 24 24 24 25 25 25 25 26 26 26 27 27 27 27 26 26 26 26 25 25 24 23 22 22 22 22 21 21 21 22 22 22 23 23 23 23
9 10 11 11 13 14 14 15 16 16 17 17 18 18 19 20 20 21 21 21 21 22 21 21 20 18 17 16 17 18 18 19 19 20 20 20 20 20 20 20 20 20 21 21 22 23 24 24 24 24 24 25 25 25 25 25 26 26 27 27 27 27 27 27 27 27 27 27 27 26 25 25 24 23 22 22 21 21 21 21 22 22 22 22 23
11 11 12 13 13 14 15 16 17 18 18 18 19 19 19 20 20 21 21 21 21 21 21 21 20 19 18 17 17 17 18 18 19 19 19 19 20 20 19 19 19 20 20 21 21 22 23 24 24 25 25 25 25 25 25 25 25 26 26 27 28 28 28 28 28 28 28 28 28 28 27 26 25 24 23 22 21 21 21 21 21 21 21 21 22
12 13 14 14 15 15 16 17 18 19 19 19 19 19 19 20 20 20 21 21 21 20 20 20 20 19 19 18 17 17 18 18 18 18 19 19 19 19 19 19 19 19 20 20 21 22 23 24 25 25 25 25 25 25 25 25 24 25 25 26 27 28 28 28 28 28 27 27 28 27 27 26 25 24 23 21 21 21 21 21 21 21 20 21 21
13 14 15 16 16 17 17 17 18 19 19 20 20 20 19 20 20 20 20 20 21 20 20 19 19 19 18 18 18 18 18 18 18 18 18 18 19 19 19 19 19 19 20 20 21 21 22 23 24 25 25 25 25 25 24 24 24 24 25 25 26 27 27 28 28 28 28 28 28 27 26 25 24 23 22 21 20 20 20 20 20 20 20 20 21
15 15 16 17 17 17 17 18 19 19 19 19 20 20 20 19 19 19 19 19 20 20 19 19 19 18 18 18 18 18 18 18 18 18 18 18 18 19 19 19 19 19 19 19 20 21 22 22 23 24 25 25 25 25 24 24 24 24 24 25 25 26 26 27 28 28 28 29 28 27 26 25 24 22 22 21 20 20 20 20 20 20 20 20 20
15 16 16 17 17 17 17 18 18 19 19 19 19 19 19 19 19 19 19 19 19 19 19 19 18 18 18 17 17 17 18 18 18 18 18 18 18 18 19 19 19 20 20 20 19 20 21 22 22 23 24 25 25 25 24 24 23 23 23 24 24 24 25 26 26 27 27 27 26 26 25 24 23 22 21 21 20 20 20 20 20 20 20 20 20
15 16 16 16 17 17 17 18 18 18 19 19 19 19 19 19 19 19 19 19 18 18 18 18 18 18 17 17 17 17 17 17 17 18 18 18 18 18 19 19 19 19 20 20 20 20 20 21 22 22 23 24 25 25 24 24 23 23 23 23 23 23 24 25 25 25 25 25 25 24 23 22 21 20 20 20 19 19 19 19 19 19 19 19 19
15 15 16 16 16 17 17 18 18 18 19 19 19 19 19 19 19 18 18 18 18 18 18 18 18 18 18 17 17 17 17 17 18 18 18 18 18 18 19 19 19 19 19 19 19 20 20 20 21 22 23 23 24 24 24 23 23 23 23 22 22 23 23 23 23 23 23 24 24 23 22 21 20 20 19 19 19 19 19 18 18 19 19 19 19
15 16 16 17 17 17 18 18 18 19 19 19 20 20 20 20 19 19 18 18 18 18 18 18 18 17 17 18 18 18 18 18 18 18 18 18 18 19 19 19 19 19 19 19 19 19 20 20 20 21 22 23 24 24 23 23 22 22 22 22 22 22 22 22 21 22 22 23 23 22 22 21 21 20 19 19 19 19 19 18 18 18 18 18 18
Wind_Direction
26 21 17 13 7 3 359 355 351 348 345 342 338 335 332 330 329 327 325 324 322 321 320 319 318 317 316 316 315 314 314 315 315 315 315 314 313 312 311 310 308 307 307 305 305 304 301 299 298 297 296 293 291 290 288 287 286 283 282 281 279 278 276 273 274 277 278 279 280 279 279 281 278 277 278 275 270 264 260 259 260 261 263 262 262
20 15 11 7 2 358 354 350 347 344 341 339 336 333 330 328 327 325 324 323 322 322 321 321 320 319 319 319 318 317 316 316 316 317 316 315 314 313 312 311 309 308 306 304 304 304 302 301 300 300 300 297 295 294 292 290 290 288 286 284 282 278 274 272 274 278 279 280 282 282 282 284 281 280 281 279 276 274 268 264 262 260 261 262 261
17 10 5 1 357 354 350 346 344 341 338 336 333 331 330 328 327 326 325 325 324 323 322 322 321 319 318 318 317 316 316 315 316 317 316 315 314 313 313 311 310 308 307 305 304 303 302 300 298 299 298 297 295 295 295 294 293 291 288 286 283 280 276 275 275 277 280 280 281 283 284 284 282 281 282 281 279 279 278 276 274 270 267 264 263
13 5 0 356 352 349 346 344 342 339 336 334 332 331 329 328 327 326 324 323 322 321 320 319 317 316 316 316 315 315 314 314 315 316 316 315 314 313 312 311 310 310 308 307 306 304 302 299 298 298 297 295 295 295 294 293 291 290 289 288 285 280 277 274 271 272 277 279 280 282 283 283 283 284 285 286 286 284 283 282 281 279 276 272 269
7 0 356 351 347 345 342 340 337 335 333 331 329 328 326 325 324 323 321 320 319 318 317 316 316 315 316 315 314 314 314 314 315 316 316 315 313 312 311 310 309 308 308 308 310 310 308 305 306 307 303 299 298 296 293 292 291 289 287 285 280 277 275 275 274 275 277 279 281 283 285 285 286 287 287 288 291 289 285 283 281 279 279 278 275
360 353 349 345 343 340 338 336 333 332 331 328 327 326 325 324 323 321 320 319 319 318 318 318 317 317 316 316 315 315 315 315 316 317 316 315 313 311 309 307 307 308 311 312 312 312 309 306 304 300 294 291 291 290 290 290 289 287 285 284 282 280 279 279 281 281 280 280 282 284 287 288 289 289 289 289 289 288 288 289 285 279 277 276 272
351 347 343 342 342 339 337 336 332 331 330 328 326 325 324 323 321 321 320 320 320 319 318 318 317 317 317 316 315 315 315 316 318 318 317 315 312 308 306 308 311 313 314 310 307 304 296 289 286 283 284 285 284 283 283 283 284 284 284 286 286 284 283 282 283 284 284 284 284 285 287 289 289 290 290 289 287 285 287 288 286 282 276 271 270
345 344 342 340 340 337 335 334 331 329 328 327 325 324 323 322 322 321 321 320 320 319 319 318 317 316 316 315 314 314 315 316 317 317 315 314 312 311 313 316 315 310 303 297 297 293 285 279 277 277 279 280 278 278 277 278 281 281 281 283 285 285 286 286 285 284 283 284 284 285 286 287 288 290 292 291 288 286 285 283 283 283 277 268 270
342 342 340 338 336 334 332 329 328 327 326 325 325 324 324 324 323 323 323 321 321 321 319 319 318 317 316 315 315 315 316 318 319 318 319 322 324 324 322 315 304 295 290 287 284 283 282 283 282 278 276 276 274 273 274 275 278 281 282 283 284 285 286 287 286 285 283 282 283 284 286 286 286 288 289 288 286 285 284 281 279 280 279 274 270
340 339 338 335 332 331 329 328 328 327 327 327 326 326 326 325 324 324 323 322 322 322 321 320 320 319 318 318 318 318 319 321 321 322 329 336 333 326 314 300 291 288 288 286 283 283 285 287 286 284 283 281 277 275 274 274 275 277 279 281 282 283 284 284 283 282 282 282 283 284 284 284 284 286 286 286 287 286 284 281 278 276 278 277 274
337 335 334 332 330 331 330 329 329 328 328 328 326 326 326 324 324 324 324 324 324 324 324 323 323 322 321 321 321 320 322 324 324 327 338 337 331 321 306 295 291 290 288 287 286 287 288 288 288 289 289 288 286 283 281 279 278 277 276 276 277 277 278 280 280 280 280 280 282 282 282 283 285 287 286 287 287 285 282 280 279 278 278 277 275
334 332 332 331 329 331 330 329 329 329 328 328 327 327 327 326 326 327 328 329 329 328 327 326 326 326 324 324 324 324 327 329 329 334 333 326 328 319 302 294 292 292 291 291 292 293 293 293 293 294 293 292 292 291 288 287 286 284 281 279 276 274 273 273 275 277 277 277 279 279 280 283 286 286 287 289 288 286 283 279 277 276 275 274 273
332 330 330 330 330 331 331 331 330 330 330 330 329 329 330 330 330 331 332 333 332 331 331 330 330 330 328 328 327 328 332 333 335 342 335 327 331 315 297 291 292 294 295 296 296 298 300 300 301 301 301 300 298 296 294 292 292 291 289 285 280 276 272 269 269 271 273 275 276 276 278 281 284 286 288 289 287 285 282 280 278 275 273 271 271
330 329 330 331 330 330 331 330 330 330 330 331 330 330 332 332 332 333 335 335 334 334 334 334 333 332 331 331 331 332 335 337 341 350 348 335 325 306 292 292 295 296 297 298 299 301 303 304 305 307 307 306 302 299 297 298 298 296 291 286 283 280 275 270 266 266 268 271 273 276 279 282 285 288 288 284 280 278 276 276 275 272 269 267 267
329 329 330 330 330 330 330 330 330 330 330 331 331 331 332 333 333 335 337 337 336 336 335 335 335 334 335 334 332 334 337 339 344 353 357 336 316 302 295 298 300 298 299 300 301 304 306 308 309 308 305 302 299 300 302 305 303 296 289 284 282 281 279 277 274 270 268 271 274 280 285 285 284 287 288 282 274 270 269 269 270 271 270 270 270
329 330 329 329 330 330 329 329 329 330 330 331 332 332 334 334 335 336 338 338 338 336 335 337 337 337 338 336 333 335 337 337 342 355 0 332 314 304 301 302 302 302 303 304 306 310 311 312 310 303 299 299 300 302 305 306 301 297 293 289 285 284 283 282 278 272 269 271 274 279 280 272 262 262 281 291 280 268 267 268 273 279 277 274 276
329 329 329 329 329 329 329 329 329 330 332 332 333 334 334 335 336 338 339 339 339 337 336 340 341 339 339 340 335 334 336 336 340 358 7 330 314 306 305 306 305 307 309 311 314 315 312 308 302 299 302 303 303 305 307 305 298 296 297 298 296 294 291 287 281 273 268 266 266 266 261 251 245 249 267 287 290 288 287 280 282 290 284 280 286
328 328 328 328 329 329 329 329 329 331 333 333 333 335 336 337 339 340 340 340 340 339 339 343 346 342 341 343 339 335 337 338 341 358 11 334 316 309 308 310 309 311 315 316 317 315 309 304 303 304 307 307 306 307 307 302 296 297 301 303 301 297 292 289 288 284 278 271 266 266 266 263 262 265 273 280 283 286 291 291 291 295 292 290 295
327 328 329 329 330 330 330 331 331 333 336 336 336 338 340 340 342 342 342 341 341 342 343 346 349 346 344 345 343 339 338 338 342 356 9 332 317 313 311 312 313 315 317 317 316 314 310 310 311 311 310 309 309 311 307 297 297 303 307 307 305 299 292 288 288 286 280 272 265 264 265 266 267 270 275 281 284 286 290 292 294 297 296 294 295
328 329 330 330 330 331 332 334 335 336 339 340 340 341 342 343 343 343 343 344 343 344 346 349 350 350 349 350 348 343 340 339 342 351 2 335 319 316 312 313 315 318 318 316 316 314 313 315 315 314 314 314 314 317 316 306 304 307 309 310 310 305 292 280 277 275 271 266 262 262 264 266 270 274 277 282 287 290 291 293 294 297 298 296 295
329 329 331 332 333 335 336 337 339 339 340 343 344 343 343 343 343 344 344 345 346 347 349 351 353 355 354 353 353 350 346 343 343 348 357 352 324 315 313 315 317 317 315 313 314 314 315 317 317 317 320 319 319 324 323 312 305 305 307 306 302 297 282 269 268 267 266 267 267 269 272 275 278 282 285 287 290 291 291 293 294 295 296 295 294
331 333 336 337 337 339 338 337 339 339 340 344 344 342 344 344 342 344 345 347 349 351 352 354 357 359 360 359 0 359 355 350 347 348 351 351 332 317 315 315 315 313 311 312 316 318 319 319 319 321 322 321 322 325 318 305 298 298 299 291 283 280 278 280 283 283 281 281 281 281 283 284 284 285 288 290 292 291 291 293 294 294 294 294 293
336 337 339 340 339 340 338 336 337 339 341 344 343 342 346 346 343 345 348 350 352 354 356 359 2 4 5 7 8 5 2 358 355 352 351 352 351 332 315 312 315 316 316 319 323 323 323 322 322 322 320 318 319 318 311 305 298 290 283 278 276 277 282 288 292 292 290 290 290 289 289 287 286 286 288 290 291 290 289 290 291 292 292 291 290
338 337 339 340 340 339 338 336 336 338 342 344 343 345 349 348 346 349 352 354 355 358 0 2 4 6 7 10 11 9 5 2 360 358 356 353 353 345 328 326 332 332 330 330 330 328 327 326 325 323 319 315 313 313 314 314 304 287 277 277 280 284 287 291 295 294 293 293 293 292 290 289 288 289 290 291 290 290 290 290 290 289 289 288 287
337 336 338 341 342 340 339 337 339 342 345 346 347 349 352 352 351 353 356 357 358 0 3 3 5 7 7 8 9 9 6 2 360 360 359 355 355 356 352 350 348 343 338 336 334 333 332 330 328 325 319 314 312 316 319 315 303 294 290 289 291 294 296 299 300 299 298 299 298 296 294 293 293 293 293 293 292 292 293 293 292 292 291 289 288
336 336 339 343 345 345 344 342 345 349 350 350 352 353 357 357 355 354 357 358 359 1 3 3 4 6 5 4 5 6 5 2 359 358 357 357 358 358 356 353 350 346 342 339 337 336 334 333 331 327 323 316 312 312 314 309 302 300 300 298 299 300 302 304 304 303 302 301 300 299 298 297 297 296 296 295 295 295 295 295 294 293 293 293 292
338 340 344 347 349 352 352 349 352 356 358 359 359 357 358 359 356 354 354 355 357 359 1 1 2 3 2 1 1 2 2 360 358 357 356 356 356 355 353 351 348 346 343 340 336 335 334 333 331 329 326 320 310 301 298 298 296 296 296 297 297 297 297 298 299 300 300 299 298 298 297 297 297 297 297 297 296 296 295 294 294 293 293 294 293
343 346 351 357 359 359 358 357 1 5 7 7 5 0 358 359 358 354 350 351 353 355 358 359 358 358 359 358 356 356 358 358 355 354 353 352 351 350 350 348 345 343 341 338 335 334 335 335 333 332 330 325 317 304 294 290 289 289 289 290 291 291 292 294 295 296 296 296 295 295 296 296 297 297 297 297 296 295 295 294 294 294 294 295 295
353 357 3 7 8 7 7 7 7 8 12 14 13 5 357 355 357 355 349 347 350 352 355 357 354 352 353 355 352 350 351 352 351 348 347 347 346 344 344 344 342 340 338 336 334 335 337 337 337 336 334 330 326 319 310 301 294 290 288 288 288 289 290 291 292 293 293 293 294 295 296 296 297 297 297 297 297 297 297 296 296 296 296 296 296
5 9 15 17 17 16 16 14 10 7 8 13 19 19 5 353 352 355 352 349 349 350 351 352 350 347 346 347 347 345 344 344 344 342 342 342 341 340 340 340 338 337 335 333 333 335 336 337 339 338 336 333 331 328 323 317 311 306 301 297 295 294 294 294 295 294 295 295 296 297 297 298 298 299 299 298 298 298 298 299 299 299 299 298 297
16 19 23 23 22 20 19 17 13 8 5 4 8 17 26 14 358 355 354 351 349 349 347 345 344 342 339 339 341 341 339 338 338 337 336 336 336 337 337 337 336 335 333 331 331 333 334 334 335 336 334 333 332 330 327 324 321 318 315 312 309 307 306 305 304 301 300 300 300 300 300 301 301 300 300 300 300 301 301 302 303 302 301 300 298
25 28 26 22 21 19 16 13 10 7 6 3 360 2 14 27 24 10 3 355 349 345 342 339 339 338 336 334 335 337 338 336 334 333 333 333 334 335 336 338 337 335 333 332 331 332 332 330 331 331 330 329 329 328 326 325 323 322 320 319 318 317 315 313 311 308 307 306 305 304 304 304 303 302 301 301 302 302 303 304 304 303 302 301 300
27 26 20 16 15 13 11 8 6 4 4 2 359 357 358 2 6 8 8 5 356 345 339 336 334 334 333 333 334 335 336 334 333 333 334 335 336 338 341 343 342 339 337 336 334 334 334 333 332 332 329 328 327 325 324 323 322 320 319 318 318 318 317 316 313 311 310 309 308 308 308 307 306 305 304 304 303 303 304 306 305 304 303 302 301
24 20 14 11 7 4 6 5 3 2 360 357 356 355 352 350 350 349 350 352 354 351 346 339 335 333 333 335 337 337 337 336 337 338 338 338 339 341 344 347 347 345 343 341 339 340 340 339 337 336 333 331 329 327 324 323 321 319 318 317 317 317 316 315 313 311 310 309 308 307 308 307 306 306 305 304 304 304 305 306 307 307 306 305 304
15 9 6 5 1 359 1 1 359 358 355 352 351 349 346 346 345 344 344 343 344 346 348 346 342 338 336 337 341 343 342 342 342 342 340 340 341 343 345 348 350 350 349 346 345 345 345 343 341 339 337 335 333 330 328 327 325 323 321 320 319 318 317 316 313 311 308 306 304 304 303 302 302 302 302 302 303 303 304 305 306 306 306 305 305
4 359 357 357 356 354 353 353 353 351 348 346 346 344 342 342 341 340 341 340 340 341 344 344 344 342 338 339 343 348 348 346 344 343 342 342 342 343 345 347 349 350 350 348 347 348 347 345 343 341 340 338 336 334 333 332 331 329 327 324 323 322 321 319 316 314 311 308 306 304 301 299 299 298 298 298 299 300 302 303 303 302 302 302 303
355 350 348 347 347 348 347 345 345 344 342 341 340 339 339 338 337 336 338 338 338 339 342 343 343 342 342 344 348 351 352 348 345 344 345 345 344 344 345 346 346 347 347 347 347 348 348 347 344 342 341 340 338 337 336 336 335 333 332 331 330 329 327 324 321 317 313 310 308 305 302 300 298 297 295 295 295 297 299 300 299 299 299 299 299
345 340 339 338 338 339 339 339 338 338 337 335 334 335 334 334 333 334 335 336 337 338 340 343 343 342 341 343 345 348 350 349 348 350 351 349 347 345 344 344 344 343 344 345 345 346 347 347 345 343 342 340 338 338 337 337 336 336 336 335 335 334 332 330 327 323 318 314 311 308 305 302 301 299 296 295 296 296 297 296 296 296 297 297 298
337 335 334 334 335 334 334 334 334 333 332 332 331 330 330 331 332 332 333 334 336 337 339 342 343 341 339 338 339 343 346 348 350 351 351 350 348 346 343 342 342 341 342 342 343 344 346 346 345 344 342 340 339 338 338 338 337 337 336 336 336 336 336 334 331 328 324 320 317 313 310 307 304 301 298 297 298 298 297 296 296 296 296 296 297
329 330 329 328 330 330 329 329 329 329 329 329 328 328 328 328 329 330 330 332 333 335 337 339 340 339 337 335 335 338 341 345 347 348 347 347 346 344 341 341 341 341 341 341 342 343 345 346 346 344 343 341 340 339 339 338 337 337 337 337 336 336 336 334 331 329 327 324 322 320 316 313 309 305 301 300 299 298 297 297 297 297 297 296 297
320 320 320 321 322 323 323 323 324 325 325 326 326 326 326 325 326 326 328 329 330 332 334 336 337 336 335 332 331 332 335 338 341 342 342 342 342 341 341 340 340 340 340 340 341 342 344 345 346 344 343 342 340 339 339 339 338 337 336 336 335 335 335 333 331 329 327 325 324 322 320 317 314 309 306 304 302 299 298 298 298 298 298 298 299
313 313 314 314 315 317 318 319 319 320 321 322 323 323 322 322 323 324 325 327 328 329 330 332 333 333 333 330 327 328 329 332 334 336 337 338 338 339 339 339 339 340 340 339 339 341 342 344 345 344 343 342 340 339 339 338 337 336 336 335 335 335 334 333 331 329 327 326 325 324 322 319 316 312 310 308 305 302 300 300 299 299 299 299 300
311 311 312 312 312 315 316 316 316 318 319 320 321 321 320 320 320 321 322 324 325 325 327 328 329 330 330 328 325 325 327 329 331 333 334 335 336 336 337 338 338 339 339 338 338 339 340 342 343 343 343 342 340 339 339 338 336 335 335 334 334 334 333 333 331 329 328 327 326 325 323 321 319 316 314 312 309 306 303 301 300 300 300 300 300
310 310 311 311 312 314 314 314 315 316 318 318 319 319 318 317 318 318 319 320 321 322 324 325 325 326 328 327 326 326 327 329 330 331 332 332 334 335 335 336 337 337 337 337 337 337 338 340 341 342 343 342 340 339 339 338 337 336 335 334 334 334 334 333 331 330 329 327 326 325 324 323 321 319 317 315 312 308 305 304 303 302 301 300 300
309 309 311 312 312 313 313 313 313 315 316 317 317 317 317 316 316 316 317 317 319 320 321 322 322 323 324 326 326 326 327 328 329 330 330 330 332 333 334 335 336 337 337 337 336 337 337 338 338 340 341 341 340 340 340 339 338 337 335 335 334 333 333 332 331 330 330 328 327 326 325 324 323 321 319 318 314 310 308 308 306 305 304 303 302
309 310 311 311 312 313 313 313 313 314 316 316 315 316 317 316 315 316 316 316 317 319 319 320 320 320 321 323 324 325 326 327 328 328 329 329 329 331 333 334 334 335 336 337 336 336 336 336 337 338 339 339 340 340 340 340 339 338 337 336 336 335 335 333 333 333 333 331 330 329 328 327 326 324 322 321 317 313 312 311 310 310 309 307 307
309 310 311 312 313 314 314 314 313 314 315 315 315 316 317 317 316 317 316 316 317 317 317 317 318 318 319 320 321 322 324 326 327 327 327 327 328 330 331 333 333 333 335 336 335 335 335 335 335 336 336 337 339 340 341 340 340 339 339 339 338 337 337 335 334 335 335 333 332 331 330 329 328 327 326 324 321 318 317 316 315 315 314 312 312
310 312 312 313 314 315 315 315 315 316 317 316 316 317 318 318 318 318 317 317 317 317 316 315 316 316 316 317 319 320 322 323 324 325 326 326 328 329 330 331 332 332 333 334 335 334 334 334 334 335 336 336 338 340 341 341 340 341 342 342 341 340 339 338 337 337 336 335 334 333 331 330 330 329 327 325 322 320 319 318 317 317 315 314 314
312 313 314 315 316 316 316 316 317 318 319 318 318 320 320 320 320 320 319 317 317 316 315 314 314 314 315 316 316 317 320 321 322 323 324 326 327 328 329 330 330 330 331 333 333 333 333 333 334 334 335 336 337 339 340 341 341 343 344 343 343 344 343 341 339 339 338 338 339 338 336 334 333 330 328 326 323 321 319 319 318 317 315 314 315
312 313 314 315 315 316 316 316 317 319 319 318 319 321 321 321 322 322 321 319 318 317 315 314 313 313 314 314 315 316 318 319 320 321 323 324 326 326 327 328 329 329 330 331 332 332 332 333 333 334 334 334 336 338 339 340 342 344 344 345 346 347 344 342 342 344 344 343 344 344 342 340 339 337 334 331 328 326 325 324 322 320 319 318 319
311 312 312 313 313 314 314 315 316 317 317 317 318 320 321 321 322 323 322 321 320 318 316 314 313 313 313 313 314 314 316 318 319 320 321 323 324 325 326 327 327 328 329 330 331 331 331 332 332 333 333 334 335 336 338 340 342 344 346 347 348 347 345 344 347 350 350 349 348 349 350 350 349 347 344 341 337 335 335 333 330 328 327 326 326
Height
1526 1526 1525 1525 1524 1524 1523 1523 1522 1522 1521 1520 1519 1518 1518 1517 1516 1515 1513 1512 1511 1510 1509 1508 1506 1505 1504 1503 1502 1501 1500 1499 1499 1498 1497 1495 1494 1492 1491 1489 1488 1486 1485 1483 1482 1481 1480 1479 1478 1477 1477 1475 1474 1473 1472 1471 1470 1470 1469 1468 1467 1467 1466 1464 1460 1452 1450 1453 1453 1451 1451 1450 1449 1448 1447 1446 1447 1448 1448 1447 1446 1445 1444 1444 1444
1525 1525 1524 1524 1523 1522 1522 1521 1521 1520 1519 1519 1518 1517 1516 1515 1514 1513 1511 1510 1509 1507 1506 1505 1504 1502 1501 1500 1499 1498 1497 1496 1495 1495 1494 1492 1490 1489 1488 1486 1484 1483 1482 1480 1479 1478 1476 1475 1474 1473 1473 1471 1470 1469 1468 1467 1466 1465 1465 1465 1463 1462 1462 1460 1457 1451 1446 1446 1448 1446 1445 1446 1444 1443 1443 1441 1440 1440 1440 1440 1440 1440 1439 1439 1438
1524 1523 1523 1522 1522 1521 1521 1520 1519 1518 1517 1517 1516 1515 1513 1512 1511 1510 1509 1507 1506 1505 1503 1502 1501 1500 1499 1498 1496 1495 1495 1493 1492 1492 1490 1489 1487 1485 1484 1483 1481 1479 1478 1477 1476 1475 1473 1472 1471 1470 1469 1467 1466 1465 1464 1463 1463 1461 1460 1460 1459 1458 1457 1456 1454 1450 1444 1441 1442 1442 1441 1440 1439 1438 1438 1437 1435 1434 1433 1433 1433 1433 1434 1433 1432
1523 1522 1522 1521 1520 1520 1519 1518 1517 1516 1515 1514 1513 1512 1511 1510 1509 1507 1506 1505 1504 1503 1502 1500 1499 1497 1496 1495 1494 1493 1491 1490 1489 1489 1487 1486 1484 1482 1481 1479 1477 1476 1474 1473 1472 1471 1470 1469 1468 1467 1466 1464 1463 1462 1461 1460 1459 1458 1456 1456 1456 1454 1453 1452 1450 1447 1443 1438 1437 1437 1437 1435 1434 1434 1433 1432 1431 1430 1428 1427 1427 1426 1427 1427 1427
1523 1521 1521 1520 1519 1519 1518 1517 1516 1515 1514 1513 1512 1511 1509 1508 1507 1505 1504 1503 1502 1501 1499 1498 1496 1495 1494 1492 1491 1489 1488 1487 1486 1485 1484 1482 1481 1479 1477 1476 1474 1473 1471 1470 1469 1468 1467 1465 1464 1464 1463 1461 1460 1459 1459 1457 1456 1455 1454 1453 1452 1451 1449 1448 1446 1444 1441 1437 1433 1433 1433 1431 1429 1429 1429 1428 1427 1426 1425 1424 1423 1422 1421 1421 1421
1521 1521 1520 1519 1519 1518 1516 1516 1514 1513 1512 1511 1510 1509 1507 1506 1504 1503 1502 1500 1499 1498 1496 1495 1493 1491 1490 1489 1487 1486 1484 1483 1483 1482 1481 1479 1477 1476 1474 1473 1471 1470 1468 1467 1466 1466 1465 1464 1462 1461 1460 1459 1458 1457 1456 1454 1453 1452 1451 1449 1449 1447 1446 1444 1443 1441 1438 1435 1431 1429 1429 1428 1427 1425 1425 1425 1424 1422 1420 1419 1419 1418 1417 1416 1416
1520 1520 1519 1518 1517 1516 1514 1514 1512 1511 1510 1509 1508 1507 1505 1504 1502 1500 1499 1497 1496 1495 1493 1492 1490 1489 1487 1486 1484 1483 1481 1480 1480 1478 1477 1476 1474 1473 1471 1470 1468 1467 1466 1465 1464 1464 1462 1461 1459 1458 1457 1456 1455 1454 1452 1451 1450 1449 1448 1447 1445 1444 1442 1441 1440 1438 1435 1433 1430 1427 1426 1425 1424 1422 1421 1422 1420 1418 1417 1416 1414 1414 1414 1413 1411
1518 1518 1517 1516 1515 1513 1512 1512 1510 1509 1508 1507 1506 1504 1502 1501 1499 1498 1496 1495 1493 1492 1490 1489 1488 1486 1485 1483 1482 1480 1479 1478 1477 1476 1474 1473 1471 1469 1468 1467 1465 1464 1463 1462 1461 1460 1458 1457 1456 1455 1454 1453 1452 1451 1450 1449 1447 1445 1445 1444 1443 1441 1439 1438 1436 1435 1433 1430 1427 1425 1423 1422 1421 1419 1418 1418 1417 1415 1415 1414 1411 1410 1410 1409 1408
1516 1516 1515 1514 1513 1512 1511 1510 1508 1507 1506 1504 1503 1501 1500 1498 1496 1495 1494 1492 1491 1489 1488 1486 1485 1483 1482 1480 1479 1477 1476 1475 1474 1473 1471 1470 1468 1467 1466 1465 1462 1460 1459 1458 1457 1456 1454 1453 1452 1451 1451 1450 1449 1448 1447 1446 1444 1442 1441 1440 1439 1438 1436 1435 1433 1431 1429 1427 1424 1422 1420 1418 1417 1416 1415 1414 1414 1412 1412 1411 1409 1407 1406 1405 1404
1514 1514 1513 1512 1511 1510 1509 1508 1506 1505 1503 1502 1500 1498 1497 1495 1494 1493 1491 1490 1488 1487 1485 1484 1482 1480 1479 1477 1476 1474 1473 1473 1471 1470 1469 1468 1468 1467 1464 1461 1458 1457 1456 1454 1452 1451 1450 1448 1447 1446 1446 1445 1444 1444 1442 1442 1441 1439 1438 1437 1436 1434 1433 1431 1429 1428 1426 1423 1420 1419 1417 1414 1413 1413 1411 1410 1410 1409 1408 1407 1405 1404 1403 1401 1399
1512 1511 1511 1510 1508 1508 1506 1505 1503 1502 1500 1499 1497 1496 1495 1493 1491 1491 1489 1488 1486 1484 1483 1481 1479 1478 1476 1474 1473 1471 1470 1469 1468 1467 1467 1468 1467 1465 1461 1457 1455 1454 1452 1450 1448 1447 1445 1444 1442 1441 1441 1440 1439 1438 1437 1436 1436 1435 1434 1433 1432 1431 1429 1427 1425 1424 1423 1420 1417 1416 1414 1410 1409 1409 1408 1407 1406 1405 1405 1404 1402 1401 1400 1398 1396
1510 1509 1508 1507 1506 1505 1504 1502 1501 1499 1498 1497 1495 1493 1492 1490 1489 1488 1486 1485 1484 1482 1480 1478 1477 1475 1473 1471 1470 1468 1467 1466 1465 1465 1465 1465 1465 1462 1456 1452 1451 1450 1448 1446 1445 1443 1441 1439 1438 1437 1436 1435 1434 1433 1432 1431 1430 1430 1429 1428 1427 1426 1425 1424 1422 1420 1419 1417 1414 1412 1411 1408 1406 1405 1405 1403 1402 1401 1400 1399 1399 1398 1396 1395 1393
1508 1507 1506 1505 1503 1502 1501 1499 1498 1496 1495 1494 1492 1491 1489 1488 1486 1485 1484 1482 1481 1479 1478 1475 1474 1472 1470 1468 1466 1465 1464 1463 1462 1462 1462 1462 1462 1458 1451 1448 1448 1446 1444 1443 1441 1439 1438 1436 1434 1433 1432 1431 1430 1429 1428 1427 1426 1425 1424 1423 1422 1421 1420 1419 1418 1417 1415 1413 1411 1408 1407 1406 1404 1402 1401 1401 1399 1397 1395 1394 1394 1394 1393 1392 1390
1506 1505 1503 1502 1501 1500 1498 1497 1495 1494 1493 1491 1489 1488 1487 1485 1484 1482 1481 1480 1478 1476 1475 1473 1471 1469 1467 1465 1463 1462 1461 1460 1459 1459 1459 1459 1457 1453 1447 1445 1445 1443 1441 1440 1438 1436 1435 1433 1431 1430 1429 1428 1427 1426 1425 1424 1423 1421 1420 1418 1417 1416 1415 1414 1413 1412 1411 1409 1407 1404 1404 1404 1401 1398 1397 1397 1395 1393 1392 1390 1390 1390 1388 1387 1386
1504 1503 1501 1500 1499 1497 1496 1494 1493 1492 1491 1489 1487 1486 1485 1483 1482 1480 1479 1477 1475 1474 1472 1470 1469 1467 1465 1463 1461 1459 1458 1457 1457 1457 1457 1456 1452 1447 1444 1443 1441 1440 1438 1437 1435 1434 1432 1431 1429 1428 1426 1425 1424 1423 1422 1422 1420 1418 1416 1414 1413 1411 1410 1409 1409 1408 1407 1406 1404 1402 1401 1400 1398 1396 1394 1392 1390 1389 1388 1387 1386 1385 1384 1382 1382
1502 1500 1499 1498 1496 1495 1494 1492 1491 1490 1488 1487 1485 1484 1483 1481 1480 1478 1477 1476 1474 1472 1470 1468 1467 1465 1463 1461 1458 1457 1456 1455 1454 1454 1454 1453 1449 1444 1441 1440 1438 1437 1435 1434 1432 1431 1430 1428 1427 1425 1423 1422 1421 1420 1420 1419 1417 1415 1412 1411 1409 1407 1406 1405 1404 1404 1403 1402 1402 1400 1398 1396 1395 1394 1392 1389 1387 1386 1385 1384 1383 1382 1381 1379 1379
1500 1498 1497 1496 1495 1494 1492 1490 1489 1488 1486 1485 1483 1482 1481 1479 1478 1477 1475 1474 1472 1470 1468 1467 1465 1463 1461 1459 1456 1455 1453 1452 1452 1452 1452 1450 1446 1440 1438 1437 1435 1434 1432 1431 1429 1428 1427 1426 1424 1422 1420 1418 1417 1417 1417 1417 1414 1411 1409 1407 1405 1403 1401 1401 1400 1399 1398 1398 1398 1397 1395 1393 1392 1391 1389 1386 1385 1384 1383 1382 1382 1381 1379 1377 1377
1498 1497 1496 1494 1493 1492 1490 1489 1487 1486 1485 1483 1482 1480 1479 1478 1476 1475 1473 1471 1470 1468 1466 1465 1463 1461 1459 1457 1455 1452 1451 1450 1449 1449 1449 1448 1443 1438 1436 1435 1433 1431 1430 1428 1427 1426 1424 1423 1421 1419 1417 1415 1414 1413 1414 1413 1411 1408 1406 1403 1401 1399 1398 1397 1396 1395 1394 1393 1393 1392 1391 1390 1388 1387 1385 1383 1383 1382 1382 1381 1380 1379 1377 1376 1375
1496 1495 1494 1492 1491 1490 1488 1487 1485 1484 1483 1481 1479 1478 1477 1476 1474 1473 1471 1469 1468 1466 1465 1463 1462 1459 1457 1455 1453 1451 1449 1448 1447 1447 1447 1446 1442 1437 1434 1433 1431 1429 1428 1426 1424 1423 1421 1419 1418 1417 1415 1412 1410 1410 1410 1410 1408 1405 1403 1400 1398 1396 1395 1394 1392 1391 1390 1390 1389 1388 1387 1386 1385 1384 1382 1381 1380 1380 1379 1379 1378 1377 1375 1374 1373
1494 1493 1492 1490 1489 1487 1486 1485 1483 1481 1480 1479 1477 1476 1474 1473 1472 1470 1469 1468 1466 1464 1463 1461 1460 1458 1456 1454 1452 1450 1447 1446 1445 1444 1444 1444 1441 1436 1433 1431 1430 1427 1426 1424 1422 1420 1418 1416 1415 1413 1411 1409 1407 1406 1406 1406 1404 1402 1400 1398 1397 1394 1392 1391 1390 1388 1388 1387 1386 1385 1384 1383 1382 1381 1379 1378 1378 1377 1377 1376 1375 1374 1372 1370 1370
1492 1491 1490 1488 1487 1485 1484 1482 1481 1479 1478 1477 1476 1474 1473 1471 1470 1469 1467 1466 1465 1463 1462 1460 1459 1457 1455 1453 1451 1449 1446 1444 1443 1442 1442 1442 1440 1435 1432 1430 1429 1426 1424 1422 1420 1418 1416 1414 1412 1410 1408 1406 1404 1403 1403 1402 1400 1398 1397 1397 1395 1392 1389 1388 1387 1386 1385 1384 1383 1383 1382 1381 1380 1378 1377 1375 1374 1374 1374 1373 1372 1371 1370 1368 1366
1490 1489 1488 1486 1485 1483 1482 1480 1479 1478 1477 1476 1475 1473 1472 1470 1469 1468 1467 1465 1464 1462 1461 1459 1458 1456 1454 1452 1450 1448 1446 1443 1441 1440 1439 1439 1438 1435 1432 1429 1428 1425 1422 1420 1419 1416 1414 1412 1409 1407 1406 1404 1402 1401 1400 1398 1396 1395 1395 1394 1392 1389 1387 1385 1384 1383 1383 1382 1381 1380 1379 1378 1377 1376 1374 1373 1372 1370 1370 1369 1368 1367 1366 1364 1363
1488 1487 1486 1484 1483 1482 1481 1479 1478 1477 1476 1475 1474 1473 1472 1470 1468 1467 1466 1464 1463 1461 1460 1458 1456 1455 1453 1451 1449 1447 1445 1443 1441 1439 1437 1436 1436 1434 1432 1429 1427 1424 1421 1419 1417 1415 1412 1410 1407 1405 1404 1402 1401 1399 1397 1395 1393 1393 1392 1390 1388 1386 1385 1383 1382 1381 1380 1379 1378 1377 1376 1375 1374 1373 1371 1370 1369 1368 1367 1365 1364 1363 1361 1360 1358
1486 1485 1484 1483 1482 1481 1480 1479 1477 1476 1476 1475 1474 1472 1471 1470 1468 1466 1465 1464 1462 1460 1459 1457 1455 1453 1451 1449 1448 1446 1444 1442 1440 1438 1436 1434 1433 1432 1430 1427 1425 1423 1420 1417 1415 1413 1410 1408 1406 1404 1401 1399 1398 1396 1394 1392 1391 1389 1388 1386 1385 1384 1382 1381 1380 1379 1378 1377 1375 1374 1373 1372 1371 1369 1368 1367 1366 1364 1363 1362 1360 1358 1356 1355 1353
1485 1484 1483 1482 1482 1480 1479 1478 1477 1476 1475 1474 1473 1472 1470 1469 1467 1466 1464 1462 1461 1459 1457 1455 1454 1452 1450 1448 1446 1444 1442 1440 1438 1436 1435 1433 1431 1429 1427 1425 1423 1420 1418 1416 1413 1411 1409 1406 1404 1402 1399 1397 1395 1393 1391 1390 1388 1386 1385 1384 1383 1382 1381 1379 1378 1377 1376 1374 1373 1371 1370 1369 1368 1366 1365 1363 1361 1359 1358 1357 1354 1353 1351 1349 1348
1484 1483 1482 1481 1481 1480 1478 1477 1476 1475 1474 1473 1471 1470 1469 1467 1466 1464 1463 1461 1459 1458 1456 1454 1452 1450 1448 1447 1445 1443 1441 1439 1437 1435 1433 1430 1428 1426 1424 1422 1420 1418 1416 1413 1411 1409 1407 1404 1402 1399 1397 1395 1393 1391 1390 1388 1386 1385 1383 1382 1381 1380 1379 1378 1376 1375 1373 1372 1370 1368 1367 1365 1364 1362 1361 1359 1357 1355 1354 1352 1349 1348 1346 1344 1342
1483 1482 1481 1481 1480 1479 1478 1477 1475 1474 1473 1472 1471 1469 1468 1466 1465 1463 1461 1460 1458 1457 1455 1453 1451 1449 1447 1445 1443 1442 1440 1438 1436 1433 1431 1429 1426 1424 1422 1420 1418 1416 1414 1411 1409 1407 1405 1402 1400 1398 1395 1393 1392 1390 1388 1387 1385 1383 1382 1381 1379 1378 1377 1376 1374 1373 1371 1369 1367 1365 1364 1362 1360 1359 1357 1355 1353 1352 1350 1348 1345 1343 1342 1340 1338
1482 1481 1481 1480 1479 1478 1477 1476 1475 1474 1472 1471 1470 1468 1467 1466 1464 1462 1460 1459 1457 1456 1454 1452 1450 1448 1446 1444 1442 1440 1439 1437 1435 1432 1430 1428 1425 1423 1421 1419 1417 1415 1412 1410 1407 1405 1403 1400 1398 1396 1394 1391 1390 1388 1387 1385 1384 1382 1380 1379 1378 1376 1375 1374 1372 1370 1368 1366 1364 1362 1361 1359 1357 1355 1353 1351 1349 1348 1346 1344 1342 1340 1338 1337 1334
1481 1480 1479 1479 1478 1477 1476 1475 1474 1473 1472 1471 1469 1468 1466 1465 1463 1462 1460 1458 1456 1454 1453 1451 1449 1447 1445 1444 1441 1439 1437 1436 1434 1432 1430 1427 1425 1423 1421 1418 1416 1414 1411 1409 1406 1404 1401 1399 1397 1394 1392 1390 1388 1386 1384 1383 1381 1380 1378 1377 1375 1374 1372 1371 1369 1367 1365 1363 1361 1359 1357 1355 1353 1352 1350 1347 1346 1344 1342 1340 1338 1337 1335 1334 1331
1480 1479 1478 1478 1477 1476 1476 1474 1473 1472 1471 1470 1469 1468 1466 1465 1463 1462 1460 1458 1456 1454 1452 1450 1449 1446 1444 1443 1442 1439 1437 1435 1433 1431 1429 1427 1425 1422 1420 1418 1416 1413 1410 1408 1406 1403 1400 1398 1395 1393 1391 1388 1386 1384 1382 1380 1378 1377 1375 1374 1372 1371 1369 1368 1366 1364 1362 1360 1358 1356 1354 1352 1350 1348 1346 1344 1342 1341 1339 1337 1336 1334 1332 1331 1329
1479 1478 1478 1477 1476 1476 1475 1474 1473 1472 1470 1469 1468 1467 1466 1465 1463 1461 1460 1458 1456 1454 1452 1450 1449 1447 1444 1442 1440 1439 1437 1434 1432 1429 1427 1425 1423 1421 1419 1417 1414 1412 1409 1406 1404 1402 1399 1396 1394 1392 1390 1387 1385 1383 1381 1378 1376 1374 1372 1371 1369 1368 1366 1364 1362 1360 1358 1356 1355 1352 1351 1349 1347 1345 1343 1341 1339 1337 1336 1335 1333 1332 1330 1328 1326
1478 1477 1477 1476 1475 1475 1474 1473 1472 1471 1470 1468 1467 1466 1465 1465 1463 1462 1460 1458 1456 1454 1452 1450 1448 1446 1444 1441 1439 1437 1435 1432 1430 1428 1425 1423 1421 1419 1417 1415 1412 1410 1408 1405 1402 1400 1397 1395 1393 1390 1388 1386 1383 1381 1379 1377 1375 1372 1370 1368 1367 1365 1364 1362 1360 1358 1355 1353 1352 1350 1348 1346 1344 1342 1340 1338 1336 1335 1333 1332 1331 1329 1327 1326 1324
1477 1477 1476 1475 1475 1474 1473 1472 1471 1470 1469 1468 1466 1465 1463 1462 1461 1461 1460 1458 1456 1454 1452 1450 1447 1445 1443 1441 1438 1436 1433 1431 1429 1426 1424 1422 1419 1417 1415 1413 1411 1408 1406 1403 1401 1398 1396 1394 1391 1389 1386 1384 1382 1379 1377 1375 1373 1370 1368 1366 1364 1362 1361 1359 1357 1355 1353 1351 1349 1347 1345 1343 1341 1339 1337 1336 1334 1332 1331 1330 1328 1327 1325 1323 1322
1476 1476 1475 1475 1474 1473 1472 1471 1470 1469 1468 1467 1465 1464 1462 1461 1459 1458 1457 1456 1455 1453 1451 1449 1446 1444 1442 1440 1437 1435 1433 1430 1427 1425 1422 1420 1418 1416 1413 1412 1410 1407 1404 1402 1399 1397 1395 1392 1390 1387 1385 1382 1380 1377 1375 1373 1371 1368 1366 1364 1362 1360 1358 1356 1354 1352 1351 1349 1347 1345 1343 1341 1339 1337 1335 1333 1332 1330 1329 1327 1326 1325 1323 1321 1319
1476 1475 1474 1474 1473 1472 1471 1470 1469 1468 1467 1466 1464 1463 1461 1459 1458 1456 1454 1452 1451 1450 1449 1447 1445 1442 1440 1438 1436 1434 1431 1429 1426 1424 1421 1419 1416 1414 1412 1410 1408 1406 1403 1401 1398 1396 1393 1391 1388 1386 1383 1381 1378 1376 1373 1371 1369 1366 1364 1361 1359 1357 1355 1353 1352 1350 1348 1346 1344 1342 1340 1339 1337 1335 1333 1331 1330 1328 1327 1325 1324 1322 1321 1319 1317
1475 1474 1473 1473 1472 1471 1470 1469 1468 1467 1466 1464 1463 1462 1460 1458 1457 1455 1453 1451 1449 1447 1446 1444 1443 1441 1439 1436 1434 1432 1430 1427 1425 1423 1420 1418 1415 1413 1410 1408 1406 1404 1402 1400 1397 1395 1392 1390 1387 1385 1382 1380 1377 1374 1372 1369 1367 1365 1362 1360 1357 1355 1353 1351 1349 1347 1345 1343 1341 1339 1338 1336 1334 1332 1330 1328 1327 1326 1324 1323 1321 1320 1318 1317 1315
1474 1473 1473 1472 1471 1470 1469 1468 1467 1465 1464 1463 1462 1460 1459 1457 1455 1453 1452 1450 1448 1446 1444 1441 1439 1438 1436 1434 1432 1430 1428 1426 1424 1422 1419 1417 1414 1412 1409 1407 1405 1403 1401 1398 1396 1394 1391 1389 1386 1384 1381 1378 1376 1373 1371 1368 1365 1363 1361 1358 1356 1353 1351 1349 1347 1344 1342 1340 1338 1336 1335 1333 1331 1330 1328 1326 1324 1323 1322 1320 1319 1317 1316 1314 1312
1473 1473 1472 1471 1470 1469 1468 1467 1466 1464 1463 1462 1460 1459 1457 1456 1454 1452 1450 1448 1446 1444 1442 1440 1437 1435 1433 1431 1429 1428 1426 1425 1422 1420 1418 1415 1413 1411 1408 1406 1404 1401 1399 1397 1395 1392 1390 1388 1385 1382 1380 1377 1375 1372 1369 1367 1364 1361 1359 1357 1354 1352 1349 1347 1345 1342 1340 1338 1335 1334 1332 1330 1328 1327 1325 1323 1321 1320 1319 1317 1316 1314 1313 1311 1310
1472 1471 1471 1470 1469 1468 1467 1466 1464 1463 1462 1460 1459 1457 1456 1454 1452 1450 1448 1447 1445 1443 1440 1438 1436 1434 1431 1429 1427 1425 1424 1422 1420 1418 1416 1414 1411 1409 1407 1405 1403 1400 1398 1396 1393 1391 1389 1386 1384 1381 1379 1376 1373 1371 1368 1365 1363 1360 1357 1355 1352 1350 1347 1345 1342 1340 1338 1335 1333 1331 1329 1327 1326 1324 1322 1320 1319 1317 1316 1314 1313 1311 1310 1308 1307
1471 1470 1469 1468 1467 1466 1465 1464 1463 1462 1460 1459 1457 1455 1454 1452 1450 1448 1446 1444 1443 1441 1439 1437 1435 1433 1430 1428 1425 1423 1421 1419 1417 1416 1414 1412 1410 1408 1406 1404 1401 1399 1397 1394 1392 1389 1387 1385 1382 1380 1377 1374 1372 1369 1366 1364 1361 1358 1356 1353 1350 1348 1346 1343 1341 1338 1336 1333 1331 1329 1327 1325 1323 1321 1319 1318 1316 1314 1313 1311 1310 1308 1307 1305 1303
1470 1469 1468 1467 1466 1465 1464 1463 1461 1460 1458 1457 1455 1454 1452 1450 1448 1446 1445 1442 1440 1439 1437 1435 1433 1431 1429 1427 1424 1422 1420 1418 1416 1414 1412 1410 1409 1407 1404 1402 1400 1397 1395 1393 1390 1388 1386 1383 1381 1378 1376 1373 1370 1367 1365 1362 1359 1356 1354 1351 1349 1346 1344 1341 1339 1336 1334 1331 1329 1327 1325 1323 1320 1318 1317 1315 1313 1311 1310 1308 1307 1305 1304 1302 1301
1468 1467 1467 1466 1464 1463 1462 1461 1459 1458 1457 1455 1453 1452 1450 1448 1446 1444 1442 1441 1439 1436 1435 1433 1431 1430 1428 1426 1424 1421 1419 1417 1415 1413 1411 1409 1407 1405 1403 1401 1399 1396 1394 1391 1389 1387 1384 1382 1379 1377 1374 1372 1369 1366 1363 1360 1358 1355 1352 1349 1347 1344 1342 1339 1337 1334 1331 1329 1327 1324 1322 1320 1318 1316 1314 1312 1311 1309 1307 1305 1304 1303 1301 1300 1298
1467 1466 1465 1464 1463 1462 1460 1459 1458 1456 1455 1453 1452 1450 1448 1446 1444 1442 1440 1438 1437 1434 1432 1431 1429 1428 1426 1424 1422 1420 1418 1416 1414 1412 1410 1408 1406 1404 1402 1400 1397 1395 1393 1390 1388 1385 1383 1380 1378 1375 1373 1370 1368 1365 1362 1359 1356 1353 1350 1348 1345 1343 1340 1337 1334 1332 1329 1326 1324 1322 1320 1317 1315 1313 1311 1310 1308 1306 1304 1303 1302 1300 1299 1297 1296
1465 1464 1463 1462 1461 1460 1458 1457 1455 1454 1452 1451 1449 1448 1446 1444 1442 1440 1438 1436 1434 1432 1430 1428 1427 1425 1424 1422 1420 1418 1417 1415 1413 1411 1409 1406 1404 1402 1400 1398 1396 1394 1392 1389 1387 1384 1381 1379 1376 1374 1372 1369 1366 1364 1361 1358 1355 1352 1349 1346 1343 1340 1338 1335 1332 1330 1327 1324 1322 1319 1317 1315 1313 1311 1309 1307 1305 1304 1302 1301 1299 1298 1296 1295 1293
1463 1462 1461 1460 1459 1458 1456 1455 1453 1451 1450 1449 1447 1445 1444 1442 1440 1438 1436 1434 1432 1430 1428 1426 1425 1423 1421 1420 1418 1416 1415 1413 1411 1409 1407 1405 1403 1401 1399 1397 1395 1392 1390 1388 1385 1383 1380 1378 1375 1372 1370 1368 1365 1362 1359 1357 1354 1351 1348 1345 1342 1339 1336 1334 1331 1328 1326 1323 1320 1317 1315 1313 1310 1309 1307 1305 1303 1302 1300 1298 1297 1295 1294 1293 1291
1462 1460 1459 1458 1457 1455 1454 1453 1451 1449 1448 1446 1444 1443 1441 1440 1437 1436 1434 1432 1430 1428 1426 1424 1423 1421 1419 1417 1416 1414 1412 1411 1409 1407 1405 1403 1401 1399 1397 1395 1393 1391 1389 1386 1384 1381 1379 1376 1373 1371 1368 1366 1363 1361 1358 1355 1353 1350 1347 1344 1341 1338 1335 1332 1329 1326 1324 1321 1318 1315 1313 1310 1308 1307 1305 1303 1301 1300 1298 1296 1295 1293 1292 1290 1289
1460 1458 1457 1456 1454 1453 1452 1450 1448 1447 1445 1444 1442 1440 1439 1437 1435 1433 1431 1429 1428 1426 1424 1422 1420 1419 1417 1415 1414 1412 1410 1409 1407 1405 1403 1401 1399 1398 1395 1393 1391 1389 1387 1385 1383 1380 1377 1375 1372 1370 1367 1364 1362 1359 1357 1354 1351 1349 1346 1343 1340 1337 1334 1331 1328 1325 1322 1319 1316 1313 1311 1308 1307 1305 1303 1301 1299 1298 1296 1295 1293 1291 1290 1288 1286
1457 1456 1455 1453 1452 1451 1449 1448 1446 1444 1443 1441 1439 1438 1436 1435 1433 1431 1429 1427 1425 1423 1422 1420 1418 1416 1415 1413 1412 1410 1408 1407 1405 1403 1401 1399 1397 1396 1394 1392 1390 1387 1385 1383 1381 1378 1376 1373 1371 1368 1366 1363 1360 1358 1355 1353 1350 1347 1345 1342 1339 1336 1333 1330 1327 1324 1321 1318 1315 1312 1310 1307 1305 1303 1301 1300 1298 1296 1294 1293 1291 1290 1288 1286 1285
1455 1454 1453 1451 1450 1449 1447 1445 1444 1442 1440 1439 1437 1435 1434 1432 1430 1429 1427 1425 1423 1421 1419 1417 1416 1414 1413 1411 1410 1408 1406 1405 1403 1401 1399 1397 1395 1394 1392 1390 1388 1386 1383 1381 1379 1377 1374 1372 1369 1367 1364 1361 1359 1356 1354 1351 1349 1346 1343 1341 1338 1335 1332 1329 1326 1323 1320 1317 1314 1311 1309 1306 1304 1302 1300 1299 1297 1295 1293 1292 1290 1288 1287 1285 1283
1453 1452 1451 1449 1448 1447 1445 1443 1442 1440 1438 1436 1434 1433 1431 1430 1428 1426 1424 1423 1421 1419 1417 1415 1414 1412 1410 1409 1407 1406 1404 1403 1401 1399 1397 1395 1394 1392 1390 1388 1386 1384 1382 1379 1377 1375 1372 1370 1368 1365 1363 1360 1357 1355 1352 1350 1347 1345 1342 1339 1337 1334 1331 1329 1326 1323 1319 1316 1313 1311 1308 1306 1304 1302 1300 1298 1296 1294 1292 1290 1289 1287 1285 1283 1281
1451 1450 1449 1447 1446 1444 1443 1441 1439 1438 1436 1434 1432 1431 1429 1427 1425 1424 1422 1420 1419 1417 1415 1413 1412 1410 1408 1407 1405 1403 1402 1400 1399 1397 1395 1393 1391 1389 1387 1385 1383 1382 1380 1378 1375 1373 1371 1368 1366 1363 1361 1358 1356 1354 1351 1349 1346 1344 1341 1338 1336 1333 1331 1328 1325 1322 1319 1316 1313 1311 1308 1306 1303 1301 1299 1297 1295 1293 1291 1289 1288 1286 1284 1282 1280